📊 Raw Sensor Data

Showing records 37676 to 37700 of 84,917 total

ID Distance (ft) Battery V Battery A Int Temp (°F) Int Humid (%) Ext Temp (°F) Solar V RSSI SNR Time Stamp
47254 15.1 3.80 -5 61 46 61 0.00 -70 8 07/24/2025 10:45 PM
47253 15.1 3.80 -5 62 46 62 0.00 -69 8 07/24/2025 10:30 PM
47252 15.2 3.80 -5 62 46 63 0.10 -71 8 07/24/2025 10:15 PM
47251 15.1 3.81 -5 63 47 63 0.10 -72 7 07/24/2025 10:00 PM
47250 15.1 3.87 -5 64 47 64 0.00 -73 8 07/24/2025 09:45 PM
47249 15.1 3.81 -5 64 47 64 0.00 -71 7 07/24/2025 09:30 PM
47248 15.1 3.87 -5 65 48 65 0.00 -71 8 07/24/2025 09:15 PM
47247 15.1 3.87 -5 66 49 66 0.00 -70 8 07/24/2025 09:00 PM
47246 15.1 3.80 -5 67 49 66 0.00 -71 8 07/24/2025 08:45 PM
47245 15.1 3.87 -5 69 50 68 1.30 -71 8 07/24/2025 08:30 PM
47244 15.1 3.80 -6 71 49 70 4.20 -70 8 07/24/2025 08:15 PM
47243 15.1 3.89 0 74 48 71 4.60 -71 8 07/24/2025 08:00 PM
47242 15.1 3.91 10 74 50 72 4.50 -71 8 07/24/2025 07:45 PM
47241 15.2 3.94 6 78 51 74 4.50 -71 7 07/24/2025 07:15 PM
47240 15.2 3.90 34 80 52 76 4.50 -70 8 07/24/2025 07:00 PM
47239 15.2 3.91 21 82 53 77 4.50 -70 8 07/24/2025 06:45 PM
47238 15.3 3.80 0 86 53 78 5.10 -70 8 07/24/2025 06:30 PM
47237 15.3 3.80 0 91 50 84 5.10 -71 8 07/24/2025 06:15 PM
47236 15.3 3.80 0 93 49 83 5.10 -71 8 07/24/2025 06:00 PM
47235 15.3 3.84 0 95 48 84 5.10 -71 7 07/24/2025 05:45 PM
47234 15.3 3.81 0 96 46 88 5.10 -70 7 07/24/2025 05:15 PM
47233 15.3 3.81 0 95 46 85 5.10 -72 7 07/24/2025 05:00 PM
47232 15.3 3.91 0 96 45 85 5.10 -71 8 07/24/2025 04:45 PM
47231 15.3 3.93 0 96 45 87 5.10 -71 7 07/24/2025 04:30 PM
47230 15.3 3.81 0 96 44 84 5.10 -71 7 07/24/2025 04:15 PM